DW5164 Weather Reports


time (UTC)temp
C
wind
direction
speed
KPH
gust
KPH
rain 1hr
cm
rain 24hr
cm
rain mn
cm
humidity
%
barometer
mb
20260831024913 20 89 0.0 0.0 0.00 0.00 0.00 92 1012.8
20260831024414 20 89 0.0 0.0 0.00 0.00 0.00 92 1012.9
20260831023913 20 89 0.0 0.0 0.00 0.00 0.00 91 1012.9
20260831023413 20 89 0.0 0.0 0.00 0.00 0.00 91 1012.9
20260831022913 20 89 0.0 3.2 0.00 0.00 0.00 90 1012.9
20260831022413 20 89 1.6 8.0 0.00 0.00 0.00 90 1012.9
20260831021912 20 103 3.2 4.8 0.00 0.00 0.00 89 1012.9
20260831021413 20 49 1.6 3.2 0.00 0.00 0.00 89 1012.9
20260831020913 20 49 0.0 3.2 0.00 0.00 0.00 89 1012.9
20260831020413 20 49 0.0 3.2 0.00 0.00 0.00 89 1013.0
20260831015913 20 49 1.6 4.8 0.00 0.00 0.00 90 1012.9
20260831014912 20 49 3.2 4.8 0.00 0.00 0.00 89 1012.9
20260831014413 20 49 1.6 3.2 0.00 0.00 0.00 89 1012.9
20260831013913 20 49 3.2 4.8 0.00 0.00 0.00 88 1013.0
20260831013414 20 49 1.6 4.8 0.00 0.00 0.00 88 1012.9
20260831012913 21 49 1.6 3.2 0.00 0.00 0.00 87 1013.0
20260831012412 21 49 1.6 4.8 0.00 0.00 0.00 86 1013.0
20260831011912 21 49 0.0 0.0 0.00 0.00 0.00 87 1013.0
20260831010912 21 49 0.0 1.6 0.00 0.00 0.00 86 1013.0
20260831010413 21 49 1.6 3.2 0.00 0.00 0.00 86 1013.0
20260831005912 21 49 1.6 3.2 0.00 0.00 0.00 85 1013.0
20260831005413 21 49 1.6 3.2 0.00 0.00 0.00 85 1013.0
20260831004913 21 49 1.6 3.2 0.00 0.00 0.00 86 1012.9
20260831004413 21 49 3.2 4.8 0.00 0.00 0.00 86 1013.0
20260831003913 21 49 1.6 4.8 0.00 0.00 0.00 86 1013.0
20260831003413 21 49 1.6 4.8 0.00 0.00 0.00 86 1013.1
20260831002913 21 49 3.2 4.8 0.00 0.00 0.00 85 1013.0
20260831002413 21 49 1.6 4.8 0.00 0.00 0.00 85 1013.1
20260831001913 21 49 1.6 4.8 0.00 0.00 0.00 84 1013.1
20260831001413 21 49 3.2 4.8 0.00 0.00 0.00 84 1013.1
20260831000913 21 49 1.6 4.8 0.00 0.00 0.00 84 1013.2
20260831000413 21 49 3.2 4.8 0.00 0.00 0.00 83 1013.2
20260830235913 21 49 3.2 4.8 0.00 0.00 0.00 83 1013.2
20260830235413 21 49 1.6 3.2 0.00 0.00 0.00 83 1013.2
20260830234912 21 49 0.0 3.2 0.00 0.00 0.00 82 1013.3
20260830233912 21 49 1.6 3.2 0.00 0.00 0.00 83 1013.2
20260830233413 21 49 0.0 3.2 0.00 0.00 0.00 82 1013.3
20260830232912 22 49 3.2 4.8 0.00 0.00 0.00 82 1013.3
20260830232413 21 49 1.6 4.8 0.00 0.00 0.00 82 1013.3
20260830231913 21 49 0.0 3.2 0.00 0.00 0.00 83 1013.3
20260830231413 21 49 0.0 1.6 0.00 0.00 0.00 84 1013.4
20260830230912 21 49 1.6 3.2 0.00 0.00 0.00 84 1013.3
20260830230413 21 49 0.0 0.0 0.00 0.00 0.00 83 1013.3
20260830225912 22 49 0.0 1.6 0.00 0.00 0.00 82 1013.4
20260830225413 22 49 0.0 1.6 0.00 0.00 0.00 82 1013.3
20260830224913 22 49 0.0 0.0 0.00 0.00 0.00 82 1013.3
20260830224413 22 49 0.0 1.6 0.00 0.00 0.00 81 1013.3
20260830223912 22 49 0.0 0.0 0.00 0.00 0.00 81 1013.3
20260830223412 22 49 0.0 0.0 0.00 0.00 0.00 82 1013.2
20260830222412 22 49 1.6 3.2 0.00 0.00 0.00 81 1013.2
20260830221912 22 49 1.6 1.6 0.00 0.00 0.00 81 1013.2
20260830221413 22 49 0.0 0.0 0.00 0.00 0.00 83 1013.2
20260830220912 22 49 0.0 1.6 0.00 0.00 0.00 83 1013.2
20260830220412 22 49 0.0 0.0 0.00 0.00 0.00 83 1013.2
20260830215912 22 49 0.0 0.0 0.00 0.00 0.00 82 1013.2
20260830215413 22 49 0.0 0.0 0.00 0.00 0.00 83 1013.2
20260830214412 22 49 1.6 3.2 0.00 0.00 0.00 83 1013.2
20260830213912 22 115 1.6 3.2 0.00 0.00 0.00 85 1013.2
20260830213412 21 115 0.0 1.6 0.00 0.00 0.00 85 1013.2
20260830212912 21 115 3.2 4.8 0.00 0.00 0.00 85 1013.2
20260830212412 21 115 3.2 11.3 0.00 0.00 0.00 84 1013.2
20260830211912 22 112 4.8 14.5 0.00 0.00 0.00 82 1013.2
20260830211412 22 52 0.0 0.0 0.00 0.00 0.00 83 1013.1
20260830210912 22 52 0.0 0.0 0.00 0.00 0.00 82 1013.0
20260830210412 22 52 0.0 0.0 0.00 0.00 0.00 82 1013.1
20260830205912 22 52 0.0 0.0 0.00 0.00 0.00 82 1013.0
20260830205412 22 52 0.0 0.0 0.00 0.00 0.00 81 1013.0
20260830204913 22 52 0.0 0.0 0.00 0.00 0.00 81 1013.0
20260830204412 23 52 0.0 0.0 0.00 0.00 0.00 80 1013.0
20260830203912 23 52 0.0 0.0 0.00 0.00 0.00 79 1013.0
20260830201912 23 52 0.0 0.0 0.00 0.00 0.00 78 1012.9
20260830201412 23 52 0.0 0.0 0.00 0.00 0.00 78 1012.8
20260830200912 23 52 0.0 0.0 0.00 0.00 0.00 76 1012.9
20260830200412 23 52 0.0 0.0 0.00 0.00 0.00 77 1012.8
20260830195912 23 52 0.0 0.0 0.00 0.00 0.00 75 1012.8
20260830195412 23 52 0.0 0.0 0.00 0.00 0.00 75 1012.8
20260830194411 23 52 0.0 0.0 0.00 0.00 0.00 76 1012.7
20260830193912 23 52 0.0 0.0 0.00 0.00 0.00 75 1012.7
20260830193412 23 52 0.0 0.0 0.00 0.00 0.00 76 1012.7
20260830192911 23 63 0.0 0.0 0.00 0.00 0.00 76 1012.6
20260830191912 24 63 0.0 0.0 0.00 0.00 0.00 75 1012.6
20260830191412 24 63 0.0 0.0 0.00 0.00 0.00 75 1012.5
20260830190911 24 63 0.0 0.0 0.00 0.00 0.00 75 1012.5
20260830185912 25 63 0.0 0.0 0.00 0.00 0.00 73 1012.4
20260830185412 25 63 0.0 0.0 0.00 0.00 0.00 72 1012.4
20260830184912 25 63 0.0 0.0 0.00 0.00 0.00 72 1012.5
20260830184411 25 63 0.0 0.0 0.00 0.00 0.00 71 1012.4
20260830183411 25 63 0.0 0.0 0.00 0.00 0.00 70 1012.2
20260830182412 25 63 0.0 0.0 0.00 0.00 0.00 67 1012.1
20260830180911 26 63 0.0 0.0 0.00 0.00 0.00 67 1012.0
20260830180411 26 63 0.0 0.0 0.00 0.00 0.00 67 1012.0
20260830175412 26 63 0.0 0.0 0.00 0.00 0.00 66 1012.0
20260830174911 27 63 0.0 0.0 0.00 0.00 0.00 66 1011.9
20260830174411 27 63 0.0 0.0 0.00 0.00 0.00 65 1011.9
20260830173912 27 63 0.0 0.0 0.00 0.00 0.00 64 1011.9
20260830172912 28 63 0.0 0.0 0.00 0.00 0.00 58 1011.8
20260830171911 29 76 0.0 1.6 0.00 0.00 0.00 57 1011.8
20260830171411 29 76 1.6 3.2 0.00 0.00 0.00 56 1011.8
20260830165911 30 64 1.6 3.2 0.00 0.00 0.00 56 1011.9
20260830164411 30 65 3.2 4.8 0.00 0.00 0.00 50 1011.9
20260830163912 30 61 3.2 4.8 0.00 0.00 0.00 51 1012.0
20260830162912 30 76 3.2 4.8 0.00 0.00 0.00 48 1012.0
20260830162412 30 76 3.2 4.8 0.00 0.00 0.00 48 1012.0
20260830161911 31 91 1.6 4.8 0.00 0.00 0.00 47 1012.0
20260830161411 31 40 1.6 3.2 0.00 0.00 0.00 49 1012.0
20260830160911 31 77 1.6 4.8 0.00 0.00 0.00 48 1012.1
20260830160411 31 91 3.2 4.8 0.00 0.00 0.00 48 1012.1
20260830155911 31 91 3.2 4.8 0.00 0.00 0.00 47 1012.1
20260830155411 31 75 3.2 4.8 0.00 0.00 0.00 47 1012.2
20260830154911 31 71 3.2 8.0 0.00 0.00 0.00 47 1012.1
20260830154411 31 108 3.2 4.8 0.00 0.00 0.00 45 1012.2
20260830153911 31 108 3.2 4.8 0.00 0.00 0.00 46 1012.2
20260830153410 31 117 3.2 4.8 0.00 0.00 0.00 43 1012.2
20260830152911 31 106 3.2 8.0 0.00 0.00 0.00 44 1012.2
20260830152411 31 94 3.2 4.8 0.00 0.00 0.00 42 1012.3
20260830151911 31 82 3.2 8.0 0.00 0.00 0.00 42 1012.3
20260830151411 31 138 3.2 4.8 0.00 0.00 0.00 42 1012.3
20260830150911 31 117 4.8 8.0 0.00 0.00 0.00 42 1012.4
20260830150411 31 101 4.8 9.7 0.00 0.00 0.00 41 1012.4
20260830145411 31 72 4.8 8.0 0.00 0.00 0.00 44 1012.4
20260830144911 31 120 1.6 4.8 0.00 0.00 0.00 41 1012.4
20260830144411 31 119 3.2 8.0 0.00 0.00 0.00 43 1012.4
20260830143911 31 68 4.8 8.0 0.00 0.00 0.00 42 1012.4
20260830142911 31 110 4.8 8.0 0.00 0.00 0.00 44 1012.5
20260830142411 31 109 4.8 8.0 0.00 0.00 0.00 45 1012.5
20260830141911 31 78 8.0 11.3 0.00 0.00 0.00 47 1012.5
20260830141411 31 48 8.0 12.9 0.00 0.00 0.00 48 1012.5
20260830140911 31 103 4.8 9.7 0.00 0.00 0.00 49 1012.6
20260830140411 31 53 4.8 8.0 0.00 0.00 0.00 47 1012.6
20260830135411 31 68 8.0 11.3 0.00 0.00 0.00 47 1012.7
20260830134911 31 56 4.8 8.0 0.00 0.00 0.00 44 1012.7
20260830134411 31 0 3.2 4.8 0.00 0.00 0.00 41 1012.7
20260830133911 31 37 3.2 8.0 0.00 0.00 0.00 46 1012.8
20260830132910 31 87 4.8 11.3 0.00 0.00 0.00 49 1012.9
20260830130911 31 101 1.6 4.8 0.00 0.00 0.00 52 1013.1
20260830130410 31 65 6.4 11.3 0.00 0.00 0.00 55 1013.2
20260830125911 31 64 3.2 4.8 0.00 0.00 0.00 53 1013.3
20260830125411 30 117 3.2 8.0 0.00 0.00 0.00 52 1013.3
20260830124911 30 122 3.2 4.8 0.00 0.00 0.00 54 1013.3
20260830124410 31 102 6.4 9.7 0.00 0.00 0.00 56 1013.4
20260830123911 30 65 3.2 8.0 0.00 0.00 0.00 54 1013.4
20260830122910 30 213 3.2 11.3 0.00 0.00 0.00 56 1013.5
20260830122410 30 130 3.2 4.8 0.00 0.00 0.00 55 1013.4
20260830121911 30 92 3.2 8.0 0.00 0.00 0.00 55 1013.5
20260830121410 30 155 4.8 11.3 0.00 0.00 0.00 56 1013.5
20260830120911 30 197 4.8 11.3 0.00 0.00 0.00 55 1013.5
20260830120411 30 130 4.8 9.7 0.00 0.00 0.00 58 1013.5
20260830115910 30 144 4.8 11.3 0.00 0.00 0.00 57 1013.6
20260830115411 30 48 3.2 11.3 0.00 0.00 0.00 57 1013.5
20260830114910 30 65 6.4 12.9 0.00 0.00 0.00 58 1013.6
20260830113911 30 40 3.2 8.0 0.00 0.00 0.00 57 1013.5
20260830113411 30 80 4.8 8.0 0.00 0.00 0.00 59 1013.6
20260830112911 30 199 4.8 8.0 0.00 0.00 0.00 59 1013.5
20260830111910 29 129 8.0 11.3 0.00 0.00 0.00 58 1013.7
20260830111411 29 79 3.2 3.2 0.00 0.00 0.00 60 1013.7
20260830110911 29 78 1.6 4.8 0.00 0.00 0.00 62 1013.8
20260830105411 29 123 3.2 11.3 0.00 0.00 0.00 61 1013.8
20260830104910 29 312 3.2 4.8 0.00 0.00 0.00 61 1013.9
20260830104410 30 323 3.2 4.8 0.00 0.00 0.00 61 1013.9
20260830103410 28 141 8.0 12.9 0.00 0.00 0.00 60 1014.0
20260830102910 29 134 4.8 8.0 0.00 0.00 0.00 61 1014.0
20260830102410 29 124 4.8 8.0 0.00 0.00 0.00 59 1014.0
20260830101910 29 127 1.6 3.2 0.00 0.00 0.00 63 1014.1
20260830101410 29 337 3.2 8.0 0.00 0.00 0.00 60 1014.1
20260830100911 28 98 1.6 9.7 0.00 0.00 0.00 62 1014.1
20260830100410 29 350 8.0 11.3 0.00 0.00 0.00 66 1014.2
20260830095910 28 63 4.8 9.7 0.00 0.00 0.00 62 1014.2
20260830095410 28 32 1.6 8.0 0.00 0.00 0.00 65 1014.3
20260830094910 28 49 3.2 11.3 0.00 0.00 0.00 62 1014.3
20260830093410 28 5 4.8 11.3 0.00 0.00 0.00 63 1014.5
20260830092410 28 35 8.0 11.3 0.00 0.00 0.00 64 1014.6
20260830091910 28 29 4.8 11.3 0.00 0.00 0.00 63 1014.7
20260830091410 28 55 6.4 9.7 0.00 0.00 0.00 63 1014.7
20260830090910 27 44 1.6 9.7 0.00 0.00 0.00 61 1014.7
20260830090410 28 40 4.8 9.7 0.00 0.00 0.00 62 1014.7
20260830085910 28 3 4.8 11.3 0.00 0.00 0.00 64 1014.7
20260830085410 27 34 1.6 8.0 0.00 0.00 0.00 65 1014.8
20260830084910 27 49 1.6 8.0 0.00 0.00 0.00 64 1014.7
20260830084410 27 31 8.0 11.3 0.00 0.00 0.00 65 1014.7
20260830082909 27 71 3.2 11.3 0.00 0.00 0.00 64 1014.7
20260830082410 27 39 1.6 11.3 0.00 0.00 0.00 63 1014.8
20260830081410 26 337 6.4 8.0 0.00 0.00 0.00 67 1014.7
20260830080910 26 332 4.8 11.3 0.00 0.00 0.00 70 1014.7
20260830080410 26 327 4.8 12.9 0.00 0.00 0.00 68 1014.6
20260830075910 26 329 4.8 11.3 0.00 0.00 0.00 70 1014.7
20260830075410 26 353 4.8 8.0 0.00 0.00 0.00 73 1014.7
20260830074909 26 326 1.6 4.8 0.00 0.00 0.00 73 1014.6
20260830073910 25 349 4.8 9.7 0.00 0.00 0.00 75 1014.6
20260830072909 25 336 4.8 8.0 0.00 0.00 0.00 74 1014.5
20260830072410 25 356 4.8 8.0 0.00 0.00 0.00 76 1014.5
20260830071910 24 332 3.2 8.0 0.00 0.00 0.00 77 1014.4
20260830071409 24 312 4.8 8.0 0.00 0.00 0.00 77 1014.5
20260830070909 23 333 4.8 4.8 0.00 0.00 0.00 76 1014.5
20260830070410 23 329 4.8 8.0 0.00 0.00 0.00 76 1014.5
20260830065910 23 323 3.2 8.0 0.00 0.00 0.00 78 1014.4
20260830065409 23 308 1.6 4.8 0.00 0.00 0.00 78 1014.3
20260830064910 23 355 1.6 4.8 0.00 0.00 0.00 79 1014.3
20260830064410 22 349 1.6 4.8 0.00 0.00 0.00 80 1014.3
20260830063909 22 327 1.6 4.8 0.00 0.00 0.00 82 1014.3
20260830063410 22 320 3.2 4.8 0.00 0.00 0.00 81 1014.3
20260830062910 22 308 3.2 4.8 0.00 0.00 0.00 81 1014.3
20260830062409 22 303 4.8 4.8 0.00 0.00 0.00 82 1014.3
20260830061409 21 320 3.2 4.8 0.00 0.00 0.00 83 1014.2
20260830055909 21 322 0.0 3.2 0.00 0.00 0.00 85 1014.2
20260830055410 20 331 0.0 0.0 0.00 0.00 0.00 86 1014.1
20260830054909 20 331 0.0 1.6 0.00 0.00 0.00 87 1014.1
20260830054409 20 331 1.6 3.2 0.00 0.00 0.00 88 1014.1
20260830053909 19 331 1.6 3.2 0.00 0.00 0.00 89 1014.1
20260830052410 18 331 1.6 4.8 0.00 0.00 0.00 91 1013.9
20260830051909 18 287 1.6 4.8 0.00 0.00 0.00 91 1013.9
20260830051411 18 251 0.0 1.6 0.00 0.00 0.00 92 1014.0
20260830050910 18 251 0.0 0.0 0.00 0.00 0.00 92 1013.9
20260830050409 18 251 0.0 1.6 0.00 0.00 0.00 92 1013.8
20260830045909 17 251 1.6 3.2 0.00 0.00 0.00 92 1013.8
20260830045409 18 255 1.6 3.2 0.00 0.00 0.00 91 1013.9
20260830044909 18 256 0.0 1.6 0.00 0.00 0.00 91 1013.9
20260830044410 18 256 1.6 3.2 0.00 0.00 0.00 90 1013.9
20260830043409 18 268 1.6 3.2 0.00 0.00 0.00 89 1013.7
20260830042909 18 303 0.0 1.6 0.00 0.00 0.00 89 1013.8
20260830042410 18 313 1.6 3.2 0.00 0.00 0.00 90 1013.7
20260830041909 18 313 3.2 4.8 0.00 0.00 0.00 90 1013.7
20260830040909 18 61 1.6 1.6 0.00 0.00 0.00 90 1013.6
20260830040409 18 61 0.0 0.0 0.00 0.00 0.00 90 1013.5
20260830035909 18 61 0.0 0.0 0.00 0.00 0.00 90 1013.5
20260830034909 18 61 0.0 0.0 0.00 0.00 0.00 89 1013.5
20260830034408 18 61 0.0 0.0 0.00 0.00 0.00 90 1013.5
20260830033909 18 61 0.0 0.0 0.00 0.00 0.00 89 1013.4
20260830033408 18 61 0.0 3.2 0.00 0.00 0.00 90 1013.4
20260830032909 18 61 0.0 3.2 0.00 0.00 0.00 90 1013.4
20260830032409 18 61 0.0 0.0 0.00 0.03 0.00 90 1013.3
20260830031909 18 61 0.0 0.0 0.00 0.03 0.00 89 1013.3
20260830031409 19 61 0.0 0.0 0.00 0.03 0.00 89 1013.3
20260830030409 18 61 0.0 0.0 0.00 0.03 0.00 89 1013.2
20260830025909 19 61 0.0 0.0 0.00 0.03 0.00 89 1013.2
20260830025409 19 61 0.0 0.0 0.00 0.03 0.00 89 1013.2